Weather History for KVOK - October, 2012

Change the Weather History Date:

Wednesday, October 31, 2012

  Actual Average Record
Temperature  
Mean Temperature 34 °F -  
Max Temperature 49 °F 48 °F 70 °F (2000)
Min Temperature 21 °F 35 °F 20 °F (2014)
Degree Days  
Heating Degree Days 30    
Moisture  
Dew Point 18 °F    
Average Humidity 63    
Maximum Humidity 88    
Minimum Humidity 25    
Precipitation  
Precipitation 0.00 in - - ()
Sea Level Pressure  
Sea Level Pressure 29.94 in    
Wind  
Wind Speed 9 mph (WNW)    
Max Wind Speed 15 mph    
Max Gust Speed 23 mph    
Visibility 10 miles    
Events      
Averages and records for this station are not official NWS values.
T = Trace of Precipitation, MM = Missing Value Source: NWS Daily Summary

Daily Weather History Graph

Daily Weather History Graph

Search for Another Location

Airport or City:

Trip Planner

Search our weather history database for the weather conditions in past years. The results will help you decide how hot, cold, wet, or windy it might be!

Date:

Astronomy

Oct. 31, 2012 Rise Set
Actual Time 7:36 AM CDT 5:51 PM CDT
Civil Twilight 7:06 AM CDT 6:21 PM CDT
Nautical Twilight 6:32 AM CDT 6:55 PM CDT
Astronomical Twilight 5:59 AM CDT 7:29 PM CDT
Moon 6:59 PM CDT (10/31) 9:21 AM CDT (10/31)
Length of Visible Light 11h 15m
Length of Day
10h 15m
Full, 97% of the Moon is Illuminated
Oct 31
Full
Nov 6
Last Quarter
Nov 13
New
Nov 20
First Quarter
Nov 28
Full

Hourly Weather History & Observations

Time (CDT) Temp. Windchill Dew Point Humidity Pressure Visibility Wind Dir Wind Speed Gust Speed Precip Events Conditions
12:55 AM 24.4 °F 14.9 °F 20.7 °F 86% 29.96 in 10.0 mi West 9.2 mph - N/A   Clear
1:55 AM 24.3 °F 15.4 °F 20.5 °F 85% 29.96 in 10.0 mi WNW 8.1 mph - N/A   Clear
2:55 AM 24.3 °F 15.4 °F 20.7 °F 86% 29.96 in 10.0 mi West 8.1 mph - N/A   Clear
3:55 AM 23.9 °F 15.8 °F 20.3 °F 86% 29.96 in 10.0 mi WNW 6.9 mph - N/A   Clear
4:55 AM 22.3 °F 13.9 °F 19.2 °F 88% 29.96 in 10.0 mi WNW 6.9 mph - N/A   Clear
5:55 AM 23.0 °F 13.9 °F 19.9 °F 88% 29.97 in 10.0 mi WNW 8.1 mph - N/A   Clear
6:55 AM 21.2 °F 12.6 °F 17.6 °F 86% 29.96 in 10.0 mi WNW 6.9 mph - N/A   Partly Cloudy
7:55 AM 21.2 °F 10.9 °F 17.6 °F 86% 29.96 in 10.0 mi WNW 9.2 mph - N/A   Partly Cloudy
8:55 AM 28.4 °F 19.1 °F 24.8 °F 86% 29.96 in 10.0 mi WNW 10.4 mph - N/A   Partly Cloudy
9:55 AM 33.8 °F 25.3 °F 24.8 °F 70% 29.96 in 10.0 mi NW 11.5 mph - N/A   Partly Cloudy
10:55 AM 37.4 °F 29.8 °F 24.8 °F 60% 29.96 in 10.0 mi WNW 11.5 mph - N/A   Partly Cloudy
11:55 AM 41.0 °F 33.1 °F 21.2 °F 45% 29.96 in 10.0 mi WNW 15.0 mph 23.0 mph N/A   Partly Cloudy
12:55 PM 44.6 °F 38.8 °F 19.4 °F 37% 29.94 in 10.0 mi WNW 11.5 mph - N/A   Partly Cloudy
1:55 PM 46.4 °F 40.4 °F 17.6 °F 32% 29.91 in 10.0 mi WNW 13.8 mph 18.4 mph N/A   Partly Cloudy
2:55 PM 48.2 °F - 14.0 °F 25% 29.88 in 10.0 mi NW 12.7 mph - N/A   Partly Cloudy
3:55 PM 48.2 °F - 14.0 °F 25% 29.90 in 10.0 mi WNW 12.7 mph - N/A   Partly Cloudy
4:55 PM 46.4 °F 41.5 °F 15.8 °F 29% 29.90 in 10.0 mi NW 10.4 mph 18.4 mph N/A   Clear
5:55 PM 37.4 °F 32.1 °F 14.0 °F 38% 29.92 in 10.0 mi NW 6.9 mph - N/A   Clear
6:55 PM 30.2 °F 24.3 °F 15.8 °F 55% 29.93 in 10.0 mi West 5.8 mph - N/A   Clear
7:55 PM 26.6 °F 17.5 °F 15.8 °F 64% 29.93 in 10.0 mi WNW 9.2 mph - N/A   Clear
8:55 PM 26.6 °F 17.5 °F 15.8 °F 64% 29.92 in 10.0 mi WNW 9.2 mph - N/A   Clear
9:55 PM 24.8 °F 17.9 °F 14.0 °F 64% 29.93 in 10.0 mi WNW 5.8 mph - N/A   Clear
10:55 PM 23.0 °F 13.9 °F 14.0 °F 68% 29.93 in 10.0 mi WNW 8.1 mph - N/A   Clear
11:55 PM 24.8 °F 19.1 °F 14.0 °F 64% 29.92 in 10.0 mi West 4.6 mph - N/A   Clear